Branson, MO

6:39 AM CDT on July 25, 2017 (GMT -0500)
Branson

Weather History for KBBG - December, 2012

Change the Weather History Date:

Friday, December 28, 2012

  Actual Average (KHRO) Record (KHRO)
Temperature  
Mean Temperature 30 °F -  
Max Temperature 33 °F 44 °F 72 °F (1928)
Min Temperature 28 °F 27 °F 0 °F (1925)
Degree Days  
Heating Degree Days 34    
Moisture  
Dew Point 27 °F    
Average Humidity 86    
Maximum Humidity 100    
Minimum Humidity 74    
Precipitation  
Precipitation 0.00 in - - ()
Sea Level Pressure  
Sea Level Pressure 29.96 in    
Wind  
Wind Speed 7 mph (NW)    
Max Wind Speed 16 mph    
Max Gust Speed 22 mph    
Visibility 6 miles    
Events Snow    
Averages and records for this station are not official NWS values.
T = Trace of Precipitation, MM = Missing Value Source: NWS Daily Summary

Daily Weather History Graph

Daily Weather History Graph

Search for Another Location

Airport or City:

Trip Planner

Search our weather history database for the weather conditions in past years. The results will help you decide how hot, cold, wet, or windy it might be!

Date:

Astronomy

Dec. 28, 2012 Rise Set
Actual Time 7:24 AM CST 5:05 PM CST
Civil Twilight 6:55 AM CST 5:34 PM CST
Nautical Twilight 6:22 AM CST 6:06 PM CST
Astronomical Twilight 5:51 AM CST 6:37 PM CST
Moon 5:40 PM CST (12/28) 7:20 AM CST (12/28)
Length of Visible Light 10h 38m
Length of Day
9h 41m
Full, 100% of the Moon is Illuminated
Dec 28
Full
Jan 4
Last Quarter
Jan 11
New
Jan 18
First Quarter
Jan 26
Full

Hourly Weather History & Observations

Time (CST) Temp. Windchill Dew Point Humidity Pressure Visibility Wind Dir Wind Speed Gust Speed Precip Events Conditions
12:15 AM 30.2 °F 22.6 °F 24.8 °F 80% 29.99 in 10.0 mi SE 8.1 mph - N/A   Overcast
12:35 AM 30.2 °F 22.6 °F 24.8 °F 80% 29.98 in 10.0 mi SE 8.1 mph - N/A   Overcast
12:55 AM 30.2 °F 21.9 °F 24.8 °F 80% 29.97 in 10.0 mi SE 9.2 mph - N/A   Overcast
1:15 AM 30.2 °F 22.6 °F 24.8 °F 80% 29.98 in 7.0 mi SSE 8.1 mph - N/A   Mostly Cloudy
1:35 AM 30.2 °F 23.4 °F 26.6 °F 86% 29.98 in 4.0 mi SSE 6.9 mph - N/A   Mostly Cloudy
1:55 AM 28.4 °F 21.2 °F 26.6 °F 93% 29.98 in 2.0 mi SE 6.9 mph - N/A   Mostly Cloudy
2:15 AM 28.4 °F 23.3 °F 28.4 °F 100% 29.98 in 2.0 mi SE 4.6 mph - N/A   Clear
2:35 AM 28.4 °F - 28.4 °F 100% 29.98 in 2.5 mi Calm Calm - N/A   Partly Cloudy
3:15 AM 30.2 °F 26.7 °F 28.4 °F 93% 29.98 in 1.8 mi East 3.5 mph - N/A   Overcast
3:35 AM 28.4 °F 23.3 °F 28.4 °F 100% 29.98 in 3.0 mi ESE 4.6 mph - N/A   Overcast
3:55 AM 28.4 °F 22.2 °F 28.4 °F 100% 29.98 in 3.0 mi SE 5.8 mph - N/A   Overcast
4:35 AM 28.4 °F 24.6 °F 28.4 °F 100% 29.98 in 4.0 mi ESE 3.5 mph - N/A   Overcast
4:55 AM 30.2 °F 25.4 °F 28.4 °F 93% 29.96 in 5.0 mi East 4.6 mph - N/A   Overcast
5:15 AM 30.2 °F 24.3 °F 28.4 °F 93% 29.96 in 5.0 mi ESE 5.8 mph - N/A   Overcast
5:35 AM 30.2 °F 26.7 °F 28.4 °F 93% 29.97 in 5.0 mi SE 3.5 mph - N/A   Overcast
6:55 AM 30.2 °F 24.3 °F 28.4 °F 93% 29.96 in 5.0 mi ESE 5.8 mph - N/A   Overcast
7:55 AM 30.2 °F - 28.4 °F 93% 29.95 in 4.0 mi Calm Calm - N/A   Overcast
8:50 AM 32.0 °F - 28.4 °F 87% 29.97 in 5.0 mi Calm Calm - N/A   Overcast
9:50 AM 32.0 °F - 28.4 °F 87% 29.96 in 5.0 mi Calm Calm - N/A   Overcast
10:55 AM 32.0 °F - 28.4 °F 87% 29.96 in 7.0 mi Calm Calm - N/A   Overcast
11:45 AM 32.0 °F - 28.4 °F 87% 29.92 in 7.0 mi Calm Calm - N/A   Overcast
12:45 PM 33.8 °F 28.6 °F 28.4 °F 81% 29.89 in 8.0 mi NNW 5.8 mph - N/A   Overcast
1:59 PM 33.8 °F 27.7 °F 28.4 °F 81% 29.88 in 7.0 mi NW 6.9 mph - N/A   Overcast
2:55 PM 33.8 °F 27.0 °F 28.4 °F 81% 29.88 in 6.0 mi NW 8.1 mph - N/A   Haze
4:15 PM 32.0 °F 23.0 °F 28.4 °F 87% 29.90 in 2.0 mi NW 11.5 mph - N/A Snow Light Snow
4:45 PM 32.0 °F 25.6 °F 28.4 °F 87% 29.90 in 0.8 mi NW 6.9 mph - N/A Snow Light Snow
5:45 PM 32.0 °F 25.6 °F 30.2 °F 93% 29.91 in 1.5 mi NW 6.9 mph - N/A Snow Light Snow
6:12 PM 32.0 °F 23.0 °F 30.2 °F 93% 29.92 in 3.0 mi NW 11.5 mph - N/A Snow Light Snow
6:45 PM 32.0 °F 23.0 °F 28.4 °F 87% 29.93 in 4.0 mi NW 11.5 mph - N/A   Overcast
7:45 PM 32.0 °F 24.8 °F 28.4 °F 87% 29.95 in 5.0 mi NW 8.1 mph - N/A   Overcast
8:15 PM 32.0 °F 24.8 °F 26.6 °F 80% 29.96 in 5.0 mi NW 8.1 mph - N/A   Overcast
8:35 PM 32.0 °F 24.2 °F 26.6 °F 80% 29.96 in 5.0 mi NW 9.2 mph 16.1 mph N/A   Overcast
8:45 PM 32.0 °F 23.6 °F 26.6 °F 80% 29.96 in 6.0 mi NW 10.4 mph 20.7 mph N/A   Overcast
8:55 PM 30.2 °F 21.9 °F 26.6 °F 86% 29.97 in 6.0 mi NW 9.2 mph - N/A   Overcast
9:15 PM 30.2 °F 22.6 °F 26.6 °F 86% 29.97 in 6.0 mi NW 8.1 mph 16.1 mph N/A   Mostly Cloudy
9:35 PM 30.2 °F 20.2 °F 24.8 °F 80% 29.98 in 7.0 mi NW 12.7 mph 17.3 mph N/A   Mostly Cloudy
9:55 PM 30.2 °F 18.9 °F 24.8 °F 80% 29.98 in 7.0 mi NW 16.1 mph 21.9 mph N/A   Scattered Clouds
10:15 PM 28.4 °F 18.5 °F 23.0 °F 80% 29.99 in 8.0 mi NW 11.5 mph - N/A   Overcast
10:35 PM 28.4 °F 18.5 °F 23.0 °F 80% 30.00 in 7.0 mi NW 11.5 mph 17.3 mph N/A   Mostly Cloudy
10:55 PM 28.4 °F 18.0 °F 23.0 °F 80% 30.00 in 8.0 mi NW 12.7 mph 19.6 mph N/A   Mostly Cloudy
11:15 PM 28.4 °F 17.5 °F 21.2 °F 74% 30.01 in 8.0 mi NW 13.8 mph 18.4 mph N/A   Mostly Cloudy
11:35 PM 28.4 °F 18.5 °F 21.2 °F 74% 30.01 in 8.0 mi NW 11.5 mph 16.1 mph N/A   Mostly Cloudy
11:55 PM 28.4 °F 19.1 °F 21.2 °F 74% 30.02 in 9.0 mi WNW 10.4 mph - N/A   Mostly Cloudy